Regional Weather Roundup
Issued by NWS

Home | Current Version | Previous Version | Graphics & Text | Print | Product List | Glossary On
Versions: 1 2 3 4 5 6 7 8 9 10 11 12 13 14 15 16 17 18 19 20 21 22 23 24 25 26 27 28 29 30 31 32 33 34 35 36 37 38 39 40 41 42 43 44 45 46 47 48 49 50
000
ASUS44 KMEG 220700
RWRTN
TENNESSEE HOURLY STATE WEATHER ROUNDUP
NATIONAL WEATHER SERVICE MEMPHIS TN
200 AM CDT FRI AUG 22 2014

TNZ002-004-019-021-049-052-054-088>092-220800-
WEST TENNESSEE

CITY           SKY/WX    TMP DP  RH WIND       PRES   REMARKS
MEMPHIS INTL   CLEAR     80  74  81 CALM      30.05S
NWS MEMPHIS      N/A     77 N/A N/A MISG        N/A
JACKSON        CLEAR     74  71  91 CALM      30.06S
DYERSBURG      CLEAR     75  64  69 CALM      30.05F
UNION CITY     CLEAR     73  73 100 SE3       30.03F
PARIS          CLEAR     72  70  94 CALM      30.06F
LEXINGTON      CLEAR     73  72  94 CALM      30.06S
SAVANNAH       CLEAR     73  73 100 CALM      30.07F
$$

TNZ008-025-027-028-033-062-065-066-220800-
NORTH MIDDLE TENNESSEE

CITY           SKY/WX    TMP DP  RH WIND       PRES   REMARKS
NASHVILLE      CLEAR     77  73  87 S3        30.08F
CLARKSVILLE    CLEAR     77  72  84 SW3       30.05F
COOKEVILLE       N/A     70  70 100 CALM      30.10F VSB 1/4
CROSSVILLE     CLEAR     71  68  90 SW3       30.15F
$$

TNZ061-075-076-078-094-096-097-220800-
SOUTH MIDDLE TENNESSEE

CITY           SKY/WX    TMP DP  RH WIND       PRES   REMARKS
FAYETTEVILLE   CLEAR     73  72  94 CALM      30.11S
TULLAHOMA      CLEAR     72  68  88 CALM      30.12F
WINCHESTER     CLEAR     72  72 100 CALM      30.11F
COLUMBIA       CLEAR     75  75 100 CALM      30.07F
SHELBYVILLE    CLEAR     73  72  94 E3        30.10F
$$

TNZ017-018-042-046-047-220800-
NORTHEAST TENNESSEE

CITY           SKY/WX    TMP DP  RH WIND       PRES   REMARKS
TRI CITIES     CLOUDY    72  70  93 CALM      30.11F FOG
ELIZABETHTON   SUNNY     66  66 100 CALM      30.12F FOG
$$

TNZ012-013-036-069-073-074-220800-
CENTRAL EAST TENNESSEE

CITY           SKY/WX    TMP DP  RH WIND       PRES   REMARKS
KNOXVILLE      CLEAR     75  70  84 W5        30.09F
OAK RIDGE      CLEAR     75  72  90 CALM      30.10F
GATLINBURG     SUNNY     70  66  88 CALM      30.09F
$$

TNZ083-085-099-220800-
SOUTHEAST TENNESSEE

CITY           SKY/WX    TMP DP  RH WIND       PRES   REMARKS
CHATTANOOGA    CLEAR     77  73  87 CALM      30.09F
$$

SKY/WX REPORTED AS FAIR MEANS FEW OR NO CLOUDS BELOW
12 THOUSAND FEET.




USA.gov is the U.S. government's official web portal to all federal, state and local government web resources and services.